Wetbulb
51.23 50.73 50.08 49.78 49.80 50.07 50.56 50.42 50.02 49.97 50.41 50.24 49.99 49.95 50.35 50.29 49.99 49.80 50.07 50.64 49.81 49.94 50.13 50.65 51.33 51.32 47.39 38.07 38.27 45.72 52.15 50.67 53.52 54.83 50.59 47.29 45.49 45.60 41.94 43.05 44.39 42.69 44.24 45.45 46.81 46.82 46.78
50.42 50.17 49.75 49.60 49.53 50.54 50.37 50.19 51.11 50.52 50.37 50.07 50.05 49.96 49.92 49.73 49.75 49.53 49.45 50.24 50.29 49.71 50.37 50.96 51.72 50.13 44.08 33.06 43.32 46.67 46.86 46.35 46.13 50.74 50.04 48.22 46.45 46.63 43.91 42.50 42.69 44.44 44.76 45.41 46.24 46.29 46.15
50.77 50.68 50.39 50.06 49.51 49.19 49.29 49.35 49.41 49.82 49.81 49.41 49.34 49.04 49.17 49.43 49.45 49.37 49.35 49.87 50.34 50.38 50.71 51.97 51.68 47.58 41.25 37.35 47.06 47.84 47.31 45.55 46.23 45.73 43.56 45.90 47.83 47.02 46.63 43.44 46.60 45.39 41.99 44.46 44.82 45.69 45.84
49.17 49.17 49.40 49.57 49.20 49.15 49.81 50.03 49.92 49.68 49.04 49.04 48.97 48.82 48.78 49.03 49.14 49.30 49.56 49.72 49.63 50.05 50.90 51.16 51.38 45.38 36.05 45.91 47.97 48.24 49.33 49.03 49.11 47.97 45.47 45.51 46.21 44.74 45.49 46.72 42.53 41.31 41.77 37.61 43.72 45.32 46.39
48.43 48.18 48.69 48.80 49.51 48.93 48.59 48.37 48.67 48.74 48.65 48.63 48.19 48.54 48.32 48.89 48.92 49.43 49.03 48.87 49.15 50.80 50.27 50.34 45.50 41.55 35.83 48.26 45.78 49.47 49.91 47.33 48.47 46.73 46.02 47.79 46.50 43.44 42.76 39.09 36.75 38.16 34.27 36.67 39.86 45.17 45.50
48.48 48.49 48.59 49.53 48.60 47.82 47.52 47.79 48.33 47.99 48.26 48.06 47.71 47.95 48.25 48.29 48.68 48.89 47.74 47.00 48.32 46.97 46.83 48.66 47.27 39.07 42.29 39.94 44.17 46.22 46.74 48.66 44.35 45.33 42.81 42.65 41.18 38.48 37.98 37.23 30.08 32.89 34.18 36.52 37.37 43.29 44.01
48.44 48.09 47.82 47.81 46.96 46.70 46.56 46.80 47.37 46.88 47.54 47.00 47.63 47.79 47.87 47.61 47.62 47.41 42.97 40.06 36.85 36.55 38.85 34.16 35.32 35.18 37.16 42.02 44.99 42.68 45.96 43.41 43.58 42.18 38.10 39.35 35.35 32.80 35.97 38.06 38.30 37.46 36.56 36.21 39.74 43.59 42.50
47.63 46.83 47.47 46.83 46.32 45.69 46.02 46.07 46.54 46.40 46.96 47.30 47.41 47.57 47.19 47.11 47.18 45.88 41.33 36.79 37.13 38.13 32.01 38.30 38.61 38.44 40.97 42.13 36.00 40.53 44.00 37.11 36.65 32.87 38.54 36.54 32.90 38.39 38.00 37.91 36.91 36.29 34.79 34.83 38.25 41.62 41.54
47.29 47.60 47.34 46.62 45.91 45.73 45.29 45.84 45.92 46.22 46.72 46.73 47.07 46.95 46.86 46.63 45.29 41.20 38.30 38.47 42.82 41.16 32.29 33.63 38.48 37.79 39.52 41.10 35.99 37.38 41.05 38.50 34.54 32.43 34.25 34.44 37.12 40.29 36.92 34.85 33.95 34.94 33.93 34.39 34.41 39.34 41.90
47.10 46.69 46.03 45.57 45.76 45.35 45.02 45.31 45.48 45.71 46.46 46.21 46.45 46.54 46.40 46.06 39.03 39.28 36.07 41.31 41.95 40.96 25.43 28.09 34.38 37.81 38.58 39.61 34.80 41.07 41.72 38.93 35.89 32.19 33.38 34.05 38.63 37.94 36.53 34.79 35.73 31.83 36.82 36.13 35.54 34.89 30.60
46.25 45.56 44.52 44.99 45.11 44.54 45.05 45.30 45.34 46.32 45.94 45.80 46.11 46.22 45.97 44.81 38.92 35.77 39.34 41.43 42.32 39.46 17.49 30.18 33.94 42.29 39.14 34.59 35.19 37.93 43.14 38.65 33.05 32.76 33.90 32.21 34.63 34.90 34.53 36.12 37.15 34.55 38.02 36.57 36.24 34.36 33.73
45.51 44.96 44.50 44.69 44.47 44.35 44.62 45.86 45.78 45.49 45.52 45.86 45.70 45.91 45.48 41.36 39.39 39.31 40.60 41.12 38.55 23.24 15.10 25.85 33.43 31.41 31.45 33.81 35.57 38.77 39.35 41.26 38.86 33.45 33.54 32.74 36.59 37.56 37.19 38.39 38.91 38.86 36.56 35.52 34.98 33.54 26.65
45.00 44.43 44.63 44.36 43.90 44.63 44.38 44.81 45.24 45.10 45.10 45.17 45.37 45.20 43.03 43.14 35.24 40.15 40.77 35.30 22.18 16.19 28.24 25.39 26.63 30.39 29.74 29.86 31.97 31.89 31.01 32.29 30.37 25.94 27.13 31.24 31.18 35.49 39.89 35.72 38.04 36.85 34.22 27.47 25.99 25.53 26.30
44.74 44.44 44.91 44.12 44.65 45.44 44.16 44.00 44.22 44.36 44.95 45.25 45.38 43.36 40.50 41.00 40.56 41.12 36.82 25.29 13.27 22.37 23.41 30.13 29.27 29.50 26.49 30.70 29.66 30.08 30.34 28.66 35.37 32.13 28.92 26.29 25.32 31.45 35.75 36.59 34.66 34.18 34.40 28.05 21.21 23.56 28.02
44.80 44.37 45.14 44.65 44.28 44.37 43.82 43.64 43.75 44.10 44.48 45.07 43.67 37.10 36.45 38.03 40.27 39.76 30.28 16.55 19.20 22.83 28.05 26.82 28.09 24.65 25.33 28.91 28.88 29.76 30.01 30.07 32.49 32.32 28.21 28.21 26.47 34.16 34.80 37.61 39.95 34.76 31.33 38.14 31.34 32.26 29.62
45.04 44.33 44.58 44.59 44.37 44.10 43.33 43.72 43.55 44.04 44.16 44.59 36.61 34.02 33.82 39.06 40.84 36.67 26.33 23.13 23.78 29.30 30.43 29.37 22.55 25.99 22.35 25.71 25.70 28.36 29.16 31.95 31.48 33.42 33.87 32.64 27.47 36.59 37.16 36.58 38.07 37.50 40.09 30.72 32.26 24.58 23.55
44.94 44.65 44.29 44.09 43.82 43.91 43.26 44.14 43.45 43.91 44.29 43.11 34.08 30.19 37.70 40.53 40.16 31.33 21.56 23.68 27.12 31.94 32.15 28.31 26.25 25.08 26.03 25.59 28.07 27.70 28.24 31.00 34.08 32.90 35.40 33.68 30.99 32.97 37.12 32.93 31.27 32.79 33.39 35.36 35.81 32.70 26.95
45.08 44.52 44.35 44.06 43.46 44.41 43.70 44.62 43.56 44.24 43.92 38.68 32.32 22.93 38.76 39.77 26.58 28.71 24.29 27.25 32.43 31.03 33.93 31.52 31.23 28.94 27.17 28.44 27.71 27.83 27.10 29.84 35.84 34.87 29.91 34.88 32.00 27.98 32.38 38.36 39.51 36.63 34.37 35.72 31.11 28.89 32.67
46.18 44.84 44.50 44.01 43.75 44.60 44.19 44.27 43.88 44.51 43.40 34.78 29.23 29.13 36.68 38.53 20.54 22.81 27.53 28.85 31.38 30.15 30.71 30.83 29.79 31.53 32.56 28.76 25.55 29.16 29.90 35.56 36.55 34.81 32.32 33.90 30.71 25.82 29.08 34.28 36.54 33.25 34.89 35.64 35.77 34.69 31.19
45.76 45.56 44.56 43.80 43.64 43.91 44.59 44.17 44.24 44.50 43.85 36.16 29.55 20.79 27.81 35.32 33.63 27.01 24.34 24.88 26.18 32.03 31.09 32.15 31.20 32.54 29.62 27.82 31.10 27.82 29.28 34.00 35.82 35.66 38.66 35.87 32.20 28.74 24.59 27.86 32.27 30.82 33.97 35.63 34.53 30.01 31.23
46.01 45.98 45.26 44.31 43.89 43.89 44.46 44.30 44.51 44.55 44.38 35.76 27.52 23.34 29.09 21.33 26.27 27.60 27.30 26.80 24.68 25.15 30.04 32.10 29.81 29.17 28.13 25.45 26.78 27.59 30.00 31.04 34.05 36.88 35.23 35.05 27.63 29.98 30.63 32.13 33.34 33.05 32.54 33.33 32.05 33.67 30.68
46.33 45.80 44.21 45.13 43.98 43.41 44.20 44.14 44.62 44.69 43.94 33.96 26.81 26.59 29.96 27.43 28.37 26.83 26.32 24.38 24.78 25.59 27.30 26.86 28.13 28.91 29.23 26.48 27.59 25.96 28.16 28.53 28.98 33.70 31.75 34.04 28.92 30.26 27.74 31.55 31.23 29.50 33.58 34.03 33.42 35.72 35.45
45.64 45.96 45.55 45.40 44.31 43.41 43.66 44.14 44.31 44.38 41.73 35.54 33.05 33.66 30.14 25.95 26.42 24.74 24.74 26.03 25.49 27.37 29.46 30.89 29.38 27.37 28.38 30.02 31.94 32.38 33.07 32.56 32.36 30.52 29.77 29.78 28.94 27.63 23.98 30.27 29.29 26.94 31.66 33.24 33.69 35.48 36.10
46.23 45.80 45.27 44.48 43.56 43.60 44.28 43.94 44.33 44.42 40.58 34.74 33.27 32.57 26.93 21.11 25.23 25.37 26.74 27.42 26.21 27.00 25.56 29.06 30.59 29.28 33.44 36.55 36.31 36.22 33.89 33.02 32.91 32.36 33.27 29.19 28.15 28.67 25.82 28.56 19.14 31.54 38.64 37.77 34.32 35.43 39.42
45.75 45.48 45.24 43.95 43.33 44.06 43.67 43.64 44.04 44.25 42.76 35.81 34.21 33.45 29.92 23.18 27.08 26.76 26.90 26.90 27.93 28.99 27.38 28.16 31.51 34.72 36.25 34.76 30.46 27.49 27.42 28.72 30.47 31.71 31.40 32.84 29.78 26.33 23.69 24.02 28.03 32.77 34.96 34.78 33.35 35.29 40.24
45.57 45.14 44.65 44.36 44.57 43.87 43.93 43.87 43.87 43.91 44.04 37.35 35.00 36.44 34.59 25.88 24.69 28.83 26.58 27.82 25.52 25.36 27.17 29.50 34.10 36.13 35.25 30.92 26.89 21.89 20.33 24.36 24.52 27.90 32.42 31.31 31.47 27.77 25.31 21.36 18.79 30.05 35.95 39.13 39.32 32.40 42.29
45.08 44.57 43.77 44.16 43.92 43.39 43.38 43.30 43.55 43.77 43.74 38.14 37.71 38.37 36.18 28.68 29.77 30.34 27.33 27.08 29.23 28.33 26.54 28.21 29.71 30.12 33.24 27.06 25.42 24.07 23.33 28.18 23.15 23.70 25.98 27.53 27.21 24.33 24.13 22.42 27.17 34.81 36.74 40.65 29.72 32.58 42.86
44.70 44.72 44.11 44.02 43.70 43.55 43.06 43.05 43.38 43.47 43.37 39.53 37.67 38.10 36.60 30.37 29.61 31.49 32.27 29.08 29.74 29.31 25.45 28.16 27.22 29.63 28.80 25.06 24.69 24.63 24.08 26.23 26.14 27.36 26.98 26.95 25.39 23.76 25.54 22.67 19.40 36.78 38.12 33.92 38.11 42.02 43.04
44.56 44.34 43.66 43.71 43.57 43.20 42.89 43.18 42.97 43.28 43.18 40.35 33.93 37.87 40.71 33.95 29.98 33.96 34.88 35.60 35.13 34.23 30.55 30.47 27.90 28.80 30.91 27.67 27.83 27.31 25.09 27.41 25.59 22.93 31.31 26.31 30.28 27.34 27.62 27.72 34.35 40.27 39.68 42.07 42.24 41.45 41.77
MSLP
1021.96 1022.15 1022.26 1022.26 1022.17 1022.15 1022.19 1022.19 1022.21 1022.09 1022.06 1021.72 1021.63 1021.43 1021.09 1020.62 1020.15 1019.68 1019.06 1018.38 1017.84 1017.46 1017.18 1016.99 1016.69 1016.37 1016.05 1015.05 1012.56 1011.21 1011.06 1010.83 1010.62 1010.65 1010.57 1010.27 1010.35 1010.40 1010.10 1009.90 1009.79 1009.38 1008.84 1008.43 1007.99 1007.82 1007.69
1021.93 1022.08 1022.21 1022.19 1022.24 1022.14 1022.10 1022.01 1021.97 1022.08 1021.82 1021.68 1021.48 1021.27 1020.94 1020.57 1020.09 1019.49 1018.72 1017.96 1017.50 1016.78 1016.49 1016.23 1016.05 1016.29 1016.24 1014.38 1011.13 1011.31 1011.28 1010.98 1010.95 1010.70 1010.39 1010.46 1009.90 1009.82 1009.86 1009.50 1009.16 1008.61 1008.46 1008.01 1007.87 1007.65 1007.46
1021.69 1021.90 1022.02 1022.08 1022.27 1022.13 1022.06 1022.06 1021.99 1021.96 1021.96 1021.64 1021.44 1021.16 1020.85 1020.43 1019.96 1019.34 1018.16 1017.34 1016.87 1016.16 1015.87 1015.32 1015.36 1015.89 1015.89 1012.73 1011.38 1011.45 1011.19 1010.97 1010.69 1010.48 1010.54 1010.19 1010.03 1010.04 1009.81 1009.22 1008.71 1008.48 1008.12 1007.81 1007.53 1007.33 1006.94
1021.73 1021.58 1021.99 1022.03 1022.19 1022.14 1022.10 1021.98 1021.99 1021.91 1021.92 1021.65 1021.34 1021.05 1020.67 1020.36 1019.76 1018.93 1017.54 1016.50 1015.89 1015.54 1015.39 1015.03 1015.30 1015.65 1014.18 1011.99 1011.65 1011.38 1011.19 1010.71 1010.49 1010.35 1010.40 1009.87 1010.06 1009.98 1009.73 1009.46 1008.88 1008.50 1008.03 1007.38 1006.80 1006.53 1006.37
1021.67 1021.68 1021.73 1022.04 1022.22 1022.11 1022.38 1022.21 1022.13 1021.87 1021.97 1021.63 1021.21 1020.92 1020.56 1020.26 1019.51 1018.62 1017.16 1016.19 1015.45 1015.39 1015.45 1015.45 1015.72 1015.47 1013.23 1011.59 1011.40 1011.11 1011.25 1011.04 1010.34 1010.06 1010.03 1009.69 1009.67 1009.44 1009.29 1009.43 1009.22 1008.38 1007.28 1007.21 1006.80 1006.20 1006.04
1021.59 1021.66 1021.70 1021.86 1022.22 1022.14 1022.32 1022.08 1022.13 1022.20 1021.86 1021.64 1021.07 1020.96 1020.42 1020.26 1019.46 1018.31 1016.71 1015.86 1015.65 1015.47 1015.59 1015.48 1015.44 1015.64 1013.04 1012.50 1012.17 1011.72 1011.13 1010.92 1010.63 1010.08 1009.86 1009.92 1009.62 1009.02 1008.57 1008.66 1007.50 1007.91 1007.61 1006.98 1006.22 1005.98 1005.75
1021.34 1021.64 1021.81 1021.92 1022.10 1022.13 1022.18 1022.00 1022.35 1022.23 1021.84 1021.51 1021.28 1020.98 1020.58 1020.10 1019.62 1018.43 1016.81 1016.27 1017.13 1016.76 1017.08 1017.56 1016.56 1016.36 1014.70 1013.25 1013.08 1011.75 1010.90 1010.61 1010.23 1009.96 1009.57 1009.44 1009.38 1006.86 1007.48 1007.56 1007.67 1007.61 1007.35 1006.58 1006.39 1006.05 1005.84
1021.17 1021.35 1021.72 1021.98 1021.99 1022.11 1022.11 1022.08 1022.33 1022.12 1021.61 1021.63 1021.26 1020.99 1020.49 1019.97 1019.55 1018.88 1018.33 1019.33 1020.99 1021.38 1018.79 1017.22 1015.87 1015.90 1014.47 1014.04 1013.63 1011.92 1011.60 1011.44 1010.21 1009.05 1008.94 1009.24 1007.47 1006.91 1007.36 1007.48 1007.55 1007.45 1007.15 1005.72 1006.49 1006.58 1006.19
1021.03 1021.23 1021.57 1021.74 1021.82 1022.05 1022.13 1022.07 1022.21 1021.96 1021.74 1021.49 1021.28 1020.91 1020.38 1020.07 1019.58 1019.58 1020.25 1020.77 1021.03 1020.98 1020.04 1016.97 1015.50 1014.87 1014.01 1013.73 1013.30 1012.33 1011.76 1011.16 1010.32 1008.91 1008.52 1007.97 1004.42 1006.20 1006.77 1006.92 1007.08 1006.78 1006.45 1006.50 1006.40 1006.50 1005.99
1020.92 1021.18 1021.40 1021.72 1021.65 1021.96 1022.02 1022.01 1022.06 1021.76 1021.75 1021.48 1021.25 1020.94 1020.40 1019.83 1020.15 1020.87 1020.68 1020.64 1020.62 1020.51 1019.57 1017.22 1015.07 1014.21 1013.82 1012.95 1012.49 1012.29 1011.24 1011.21 1010.19 1009.14 1008.57 1007.61 1004.73 1005.77 1006.04 1006.01 1006.57 1006.16 1006.37 1006.56 1006.35 1006.62 1005.77
1020.75 1021.15 1021.39 1021.53 1021.63 1021.82 1021.85 1021.85 1021.97 1021.69 1021.59 1021.48 1021.28 1021.05 1020.63 1020.61 1021.40 1021.36 1020.95 1020.66 1020.14 1020.26 1019.35 1016.97 1015.28 1014.33 1014.44 1014.67 1013.71 1011.74 1010.91 1010.43 1009.66 1009.15 1009.29 1005.96 1005.53 1005.23 1005.30 1004.29 1005.94 1005.43 1005.68 1005.74 1005.86 1006.02 1006.24
1020.64 1020.92 1021.21 1021.34 1021.57 1021.66 1021.72 1021.82 1021.76 1021.70 1021.53 1021.37 1021.33 1021.12 1020.98 1021.52 1021.52 1021.36 1021.04 1020.45 1020.20 1020.25 1018.44 1017.05 1016.06 1015.25 1014.84 1014.18 1013.20 1012.30 1011.55 1010.47 1009.22 1008.85 1008.25 1006.49 1006.42 1005.27 1003.59 1004.43 1004.71 1005.25 1005.58 1005.95 1006.24 1006.27 1005.52
1020.39 1020.67 1020.89 1021.11 1021.22 1021.45 1021.55 1021.58 1021.77 1021.60 1021.49 1021.27 1021.28 1021.12 1021.09 1021.54 1021.74 1021.36 1021.18 1021.09 1021.08 1020.25 1019.01 1017.86 1016.81 1016.44 1015.72 1014.50 1013.61 1013.31 1012.36 1011.04 1010.03 1008.94 1007.68 1006.30 1005.17 1004.65 1003.98 1003.78 1004.14 1004.59 1005.01 1005.49 1005.91 1005.48 1003.79
1020.08 1020.45 1020.67 1020.87 1020.92 1021.19 1021.29 1021.50 1021.63 1021.51 1021.48 1021.25 1021.12 1021.10 1021.51 1021.72 1021.59 1021.46 1021.71 1021.82 1021.32 1020.48 1019.52 1018.55 1017.79 1016.66 1016.02 1014.97 1014.03 1013.39 1012.78 1011.53 1009.76 1009.28 1007.87 1006.69 1004.81 1003.54 1003.16 1002.55 1002.69 1003.35 1003.74 1003.77 1003.55 1003.61 1003.06
1019.83 1020.17 1020.43 1020.55 1020.79 1021.11 1021.12 1021.36 1021.43 1021.24 1021.37 1021.24 1021.05 1021.67 1021.99 1022.05 1021.65 1021.85 1022.17 1021.93 1021.44 1020.82 1019.95 1019.26 1018.05 1017.09 1016.17 1015.58 1015.61 1014.30 1013.24 1012.66 1012.24 1010.58 1009.15 1006.81 1004.65 1002.69 1002.03 1002.00 1001.92 1002.53 1002.95 1002.21 1002.79 1002.99 1002.68
1019.32 1019.77 1020.07 1020.27 1020.54 1020.75 1020.93 1021.11 1021.21 1021.18 1021.25 1021.30 1021.70 1022.20 1022.58 1022.26 1021.90 1022.07 1022.35 1021.97 1021.30 1020.61 1019.97 1019.63 1019.04 1018.06 1017.07 1016.04 1015.63 1014.73 1013.77 1013.33 1012.32 1011.16 1010.37 1007.76 1005.79 1002.64 1001.75 1002.11 1001.84 1001.57 1001.60 1002.62 1002.56 1002.21 1001.75
1018.91 1019.31 1019.70 1019.98 1020.27 1020.51 1020.73 1020.88 1020.99 1021.15 1021.19 1021.39 1021.97 1022.62 1022.71 1022.28 1022.04 1022.44 1022.61 1022.03 1021.18 1020.23 1020.02 1019.67 1019.11 1018.49 1017.67 1016.83 1016.02 1014.96 1013.90 1012.57 1011.46 1010.16 1009.69 1008.58 1006.85 1003.55 1002.41 1001.83 1001.26 1001.68 1001.63 1001.53 1001.54 1001.68 1001.02
1018.60 1018.98 1019.36 1019.66 1019.98 1020.17 1020.48 1020.59 1020.81 1020.99 1021.22 1021.44 1022.41 1023.24 1022.62 1022.35 1022.72 1022.77 1022.59 1021.91 1021.06 1020.11 1019.63 1019.38 1018.99 1018.62 1017.99 1017.10 1015.98 1015.05 1014.01 1012.83 1011.13 1010.66 1009.78 1008.67 1007.54 1004.99 1002.94 1002.77 1002.20 1001.55 1001.24 1001.33 1000.90 1001.02 1001.01
1018.10 1018.45 1018.91 1019.20 1019.61 1019.86 1020.09 1020.37 1020.62 1020.81 1021.01 1021.81 1022.78 1023.05 1022.85 1022.54 1022.85 1022.79 1022.38 1021.62 1020.96 1020.17 1019.61 1019.30 1018.83 1018.67 1017.97 1016.98 1015.90 1014.45 1013.24 1011.90 1011.29 1010.68 1010.37 1009.77 1008.02 1005.91 1003.61 1003.27 1002.97 1003.06 1002.70 1002.13 1001.44 1001.37 1000.92
1017.58 1018.05 1018.49 1018.85 1019.21 1019.55 1019.77 1020.08 1020.36 1020.61 1021.04 1021.73 1022.83 1023.30 1023.24 1022.72 1022.68 1022.63 1022.46 1021.71 1020.89 1019.95 1019.52 1019.35 1019.07 1018.70 1018.09 1016.81 1015.86 1014.57 1013.28 1011.97 1011.59 1010.73 1010.17 1010.11 1008.93 1007.11 1005.24 1004.44 1004.17 1003.84 1003.41 1002.93 1002.11 1001.59 1000.81
1016.89 1017.42 1018.06 1018.50 1018.89 1019.04 1019.53 1019.82 1020.09 1020.42 1020.91 1021.70 1022.77 1023.25 1022.95 1023.09 1022.79 1022.59 1022.33 1021.65 1020.97 1020.29 1019.68 1019.32 1018.90 1018.74 1018.43 1017.22 1015.91 1014.69 1013.68 1012.60 1011.28 1010.66 1010.23 1009.90 1009.09 1008.11 1006.48 1005.29 1004.55 1004.10 1003.70 1003.29 1002.60 1001.88 1001.31
1016.02 1016.70 1017.56 1017.99 1018.34 1018.58 1019.14 1019.53 1019.81 1020.24 1020.88 1021.82 1022.75 1023.01 1023.00 1022.90 1022.72 1022.43 1022.04 1021.43 1020.92 1020.60 1020.23 1019.32 1019.00 1018.66 1018.22 1017.59 1016.78 1015.46 1015.08 1013.73 1012.46 1010.87 1010.92 1010.28 1009.30 1008.49 1007.37 1005.70 1004.95 1004.18 1003.91 1003.34 1002.85 1002.46 1001.95
1015.41 1016.08 1016.77 1017.28 1017.73 1018.09 1018.55 1019.11 1019.49 1019.94 1020.63 1021.57 1022.50 1022.54 1022.54 1022.79 1022.48 1022.32 1021.66 1021.13 1020.93 1020.80 1019.80 1019.47 1019.20 1018.68 1017.67 1016.86 1016.46 1015.36 1014.85 1013.68 1013.10 1012.40 1011.36 1010.66 1009.85 1008.55 1006.81 1005.72 1004.88 1004.32 1004.07 1003.60 1003.07 1002.84 1002.63
1014.65 1015.41 1016.14 1016.80 1017.22 1017.60 1018.12 1018.68 1019.12 1019.59 1020.17 1021.08 1021.89 1022.36 1022.81 1022.57 1022.16 1021.69 1021.32 1021.16 1020.86 1020.67 1020.35 1019.37 1018.98 1018.50 1017.17 1016.52 1015.19 1013.32 1012.79 1012.21 1012.08 1011.75 1011.88 1010.98 1010.32 1009.35 1007.53 1006.05 1004.96 1004.10 1003.72 1003.45 1003.46 1003.43 1002.78
1014.09 1014.82 1015.56 1016.18 1016.67 1017.18 1017.76 1018.30 1018.69 1019.19 1019.92 1020.81 1021.45 1021.89 1022.29 1022.16 1021.70 1021.39 1021.17 1020.88 1020.58 1020.30 1019.98 1019.30 1018.44 1017.87 1017.41 1016.73 1015.59 1013.88 1012.60 1012.03 1011.34 1011.23 1011.17 1011.03 1010.65 1009.63 1008.42 1006.76 1005.52 1004.26 1004.28 1003.94 1003.64 1003.20 1002.93
1013.49 1014.24 1014.97 1015.62 1016.22 1016.73 1017.24 1017.80 1018.26 1018.80 1019.45 1020.52 1021.05 1021.32 1021.78 1022.08 1021.37 1021.00 1020.96 1020.69 1020.49 1020.20 1019.70 1018.93 1018.28 1017.79 1017.60 1017.21 1016.45 1015.21 1013.85 1012.86 1011.88 1011.22 1010.92 1010.94 1010.74 1010.39 1009.14 1007.81 1006.02 1004.88 1004.43 1003.84 1003.64 1003.36 1003.32
1012.86 1013.65 1014.49 1015.01 1015.71 1016.28 1016.81 1017.38 1017.85 1018.36 1019.06 1020.11 1020.57 1020.81 1021.41 1021.61 1021.05 1021.01 1020.68 1020.46 1020.27 1020.18 1019.96 1019.44 1018.96 1018.18 1017.88 1017.41 1016.63 1015.49 1014.29 1013.72 1012.90 1012.16 1011.45 1011.22 1011.11 1010.58 1010.04 1009.03 1006.90 1005.51 1004.75 1004.13 1004.24 1005.16 1004.33
1012.17 1012.99 1013.72 1014.43 1015.14 1015.77 1016.40 1016.94 1017.47 1017.95 1018.57 1019.62 1020.18 1020.57 1020.92 1021.18 1020.64 1020.57 1020.37 1020.12 1019.95 1019.97 1019.91 1019.75 1019.40 1018.88 1018.33 1017.83 1017.44 1016.46 1015.42 1014.63 1013.99 1013.18 1012.53 1012.00 1011.53 1010.99 1010.34 1009.39 1007.92 1006.70 1005.31 1005.33 1005.85 1005.22 1005.02
1011.38 1012.23 1013.10 1013.96 1014.63 1015.28 1015.95 1016.58 1017.08 1017.55 1018.15 1019.10 1020.21 1020.32 1020.47 1021.00 1020.51 1020.22 1019.86 1019.41 1019.27 1019.11 1019.72 1019.84 1019.67 1019.40 1018.74 1018.42 1018.04 1017.26 1016.32 1015.35 1014.76 1013.50 1013.00 1012.43 1012.05 1011.60 1010.59 1009.09 1008.25 1007.83 1007.50 1006.92 1006.18 1005.68 1005.61
Wind_Speed
5 4 3 4 5 5 6 6 6 7 8 11 14 15 16 18 19 21 21 21 23 23 22 20 17 14 6 3 11 4 13 13 2 4 4 7 6 6 6 5 6 8 5 7 11 12 10
5 4 3 4 4 6 8 10 8 6 9 12 13 14 16 19 20 22 24 24 24 24 23 21 13 2 1 4 1 7 10 8 4 2 1 4 5 4 5 6 10 2 6 13 10 13 7
5 5 5 5 4 5 5 6 6 8 10 11 13 15 17 19 21 22 24 25 23 22 21 14 3 6 4 16 6 12 9 4 4 8 6 4 3 2 1 4 3 5 12 11 10 7 9
4 3 3 4 2 2 5 7 8 9 10 11 13 14 16 19 21 24 26 26 24 15 7 6 9 4 9 4 7 8 4 6 4 8 12 12 7 10 4 5 4 5 5 6 1 11 7
4 3 2 3 5 7 7 7 8 9 9 11 12 14 17 18 21 23 25 23 15 4 6 11 3 2 10 6 3 3 4 8 12 1 5 4 6 6 5 8 9 6 14 10 6 8 5
6 5 4 6 5 5 5 5 8 9 8 10 12 14 16 19 20 20 25 15 7 4 1 4 3 4 3 8 9 12 13 6 4 7 2 4 4 6 6 10 16 10 11 9 15 6 10
7 5 3 3 3 4 4 5 7 7 8 10 12 14 17 19 20 19 13 5 9 7 9 4 17 8 19 10 16 4 7 6 4 5 6 5 7 21 18 19 18 12 11 14 5 2 6
6 4 4 3 1 2 3 4 6 7 8 10 11 14 17 20 16 16 8 9 5 5 13 18 20 14 19 10 7 14 4 5 5 14 10 6 20 11 11 15 15 16 20 25 13 11 11
7 5 6 3 1 2 2 4 5 6 7 9 11 14 17 20 4 6 3 6 4 4 6 11 6 6 7 2 4 8 5 4 9 17 16 18 27 18 11 10 17 20 23 17 18 7 10
6 7 5 2 2 2 2 2 3 4 7 9 11 13 16 18 7 5 2 8 7 2 4 7 5 3 12 14 6 18 3 6 4 7 13 18 26 13 9 19 15 18 11 17 15 9 11
8 6 4 3 3 1 2 3 2 4 6 9 11 12 14 11 0 2 4 9 9 1 6 12 6 4 17 18 17 6 7 6 19 16 6 12 5 18 23 19 15 9 10 15 16 15 10
8 6 5 5 3 2 2 4 5 6 6 9 10 10 11 3 2 4 6 8 3 2 5 7 9 18 17 17 16 11 12 13 8 11 14 25 14 10 19 12 20 6 6 5 3 6 9
8 6 6 6 4 4 2 3 4 5 7 8 9 9 4 0 1 4 5 4 3 2 6 9 11 13 20 8 12 15 21 16 10 7 11 11 23 16 9 12 13 17 12 7 7 7 9
8 8 8 6 4 5 3 2 3 5 7 8 10 7 3 0 2 3 3 5 5 0 6 7 8 22 7 10 14 17 15 16 16 18 12 9 9 21 16 18 13 19 17 9 10 8 7
9 8 6 9 6 4 3 2 2 4 6 8 7 3 2 3 2 3 4 5 4 3 4 10 16 8 8 7 12 10 9 6 8 11 7 5 7 5 10 12 16 9 18 15 3 1 3
11 9 7 8 6 7 3 1 1 3 4 5 2 2 2 4 2 3 4 1 2 4 6 4 5 3 12 14 13 12 7 7 11 8 10 3 7 6 1 15 12 10 17 10 6 9 7
13 11 9 8 4 6 4 4 2 1 3 4 4 4 3 2 1 4 3 2 4 7 7 4 5 9 9 12 8 6 6 11 9 15 11 7 4 2 5 7 19 12 12 7 9 5 10
14 11 11 7 7 8 5 5 3 1 5 6 3 3 1 2 3 2 1 4 4 6 4 8 6 10 10 15 7 6 6 6 16 12 14 4 5 7 12 4 1 10 21 10 11 13 7
16 15 14 12 8 9 8 6 4 4 6 4 3 1 2 1 2 1 3 3 4 3 4 3 4 2 10 9 8 9 8 12 10 14 9 7 3 5 6 3 6 7 4 5 14 1 14
17 16 15 12 12 7 10 8 6 6 9 4 3 2 2 1 2 2 1 3 4 4 4 2 4 5 11 9 8 11 12 9 19 16 13 1 4 9 3 4 2 1 3 6 5 12 15
18 20 16 15 12 8 9 9 7 8 11 4 2 2 2 1 1 1 1 3 5 4 3 2 2 8 10 7 13 4 13 19 12 8 12 2 3 7 14 7 1 3 2 3 2 3 14
16 21 17 18 15 11 10 10 9 11 12 3 4 3 2 1 2 2 3 2 2 3 3 4 4 13 13 9 12 20 18 15 11 9 12 8 4 3 3 13 6 1 0 5 3 2 4
19 24 20 18 16 13 13 12 11 13 8 2 1 1 3 1 2 2 3 2 1 7 5 8 10 16 11 12 12 20 18 19 17 17 9 6 7 9 5 6 7 5 2 1 2 4 3
21 22 19 19 16 13 14 13 12 17 8 3 3 3 3 3 5 5 3 2 8 7 10 14 13 6 5 15 18 14 10 14 12 13 10 7 9 4 7 10 4 1 4 6 2 11 7
21 21 20 18 15 16 14 13 13 17 15 3 3 3 3 2 5 6 9 7 7 8 9 10 11 5 10 7 6 8 4 3 3 1 7 12 3 4 3 6 4 2 4 2 1 2 1
21 21 18 16 17 16 14 14 13 16 18 4 2 3 2 2 5 4 5 4 5 3 5 4 5 6 3 1 2 3 4 4 4 9 6 5 5 3 4 4 3 2 6 4 3 1 2
21 24 24 19 18 15 15 15 14 15 18 5 2 4 2 3 4 5 4 3 2 1 4 4 7 5 3 3 3 3 2 5 4 6 6 3 2 6 6 4 6 5 12 7 2 4 6
23 24 23 19 19 16 15 15 14 14 16 6 2 4 4 3 4 6 4 5 3 3 4 4 6 0 3 4 3 3 3 4 5 7 6 3 3 2 2 3 7 14 9 5 3 2 4
23 25 22 20 18 18 17 15 14 13 14 10 2 2 5 2 4 1 5 12 10 8 3 2 3 3 3 2 1 3 3 2 5 4 2 3 1 4 5 4 4 9 8 8 6 1 4
Wind_Direction
129 118 96 72 60 43 31 30 14 11 4 8 357 352 348 345 339 335 332 325 322 319 316 311 314 323 337 345 249 24 7 354 355 153 224 179 170 195 216 213 207 237 240 223 237 247 248
146 150 132 97 64 38 38 27 3 353 16 3 357 353 349 340 336 336 328 321 314 316 312 307 304 309 139 275 122 2 350 333 323 312 290 206 214 229 249 228 223 247 256 261 264 254 251
114 179 180 147 78 48 41 28 16 13 11 9 360 351 345 338 337 332 326 314 313 315 309 306 259 152 164 242 344 335 335 286 237 232 252 234 309 258 307 259 253 256 284 270 242 235 239
126 85 73 74 60 41 41 39 30 26 4 356 352 351 342 337 338 332 322 317 321 325 340 54 136 124 245 250 294 309 306 312 249 243 240 260 251 244 218 285 299 264 263 273 309 207 226
154 139 158 121 82 52 26 21 24 16 2 3 360 353 347 342 341 330 320 322 323 341 99 117 93 72 277 301 337 346 24 324 314 168 199 287 166 203 171 219 258 231 255 252 280 205 211
181 173 84 111 82 44 12 30 35 9 6 7 6 355 351 346 345 336 329 333 359 52 283 211 162 293 261 322 328 327 306 271 292 316 112 176 222 215 198 193 232 232 240 237 244 200 207
183 145 137 122 75 49 18 35 25 357 12 11 7 1 352 346 348 350 347 20 12 355 42 256 285 255 286 287 311 296 305 322 227 213 217 199 217 223 206 213 232 240 244 252 248 222 268
152 153 155 132 92 7 7 25 17 359 22 9 7 6 357 347 349 8 16 68 69 270 300 289 267 262 266 268 316 311 297 268 244 236 200 199 234 231 207 208 217 226 243 253 261 257 272
171 205 171 139 93 12 347 16 17 17 13 8 11 15 359 347 45 35 46 73 307 295 272 300 285 283 327 316 264 305 308 267 246 250 219 218 241 207 206 204 215 229 234 251 253 258 254
146 130 119 134 101 57 341 4 8 22 16 13 16 17 9 346 44 336 15 334 324 226 319 297 347 25 352 347 247 317 248 241 272 291 236 235 255 225 197 224 208 238 217 234 236 228 251
163 150 160 170 127 73 56 20 47 26 20 16 18 16 23 36 255 27 293 335 323 134 319 340 349 336 339 349 281 322 296 252 258 261 281 236 254 204 221 208 186 230 194 210 221 226 254
172 177 186 175 162 146 73 49 63 38 12 9 10 8 8 41 19 257 333 328 34 54 282 342 340 335 339 336 327 325 325 298 243 246 237 255 283 235 222 206 210 171 135 138 142 193 240
176 193 217 190 193 190 120 63 44 27 7 7 358 356 26 117 276 325 348 25 66 101 358 328 324 333 319 312 324 332 325 306 277 230 242 275 234 237 229 204 193 185 173 188 206 200 238
183 219 212 193 210 189 139 72 29 20 354 359 340 23 18 19 322 31 36 56 79 105 279 319 327 313 303 342 333 318 315 324 325 256 260 271 272 210 224 216 190 192 187 188 209 208 231
196 216 239 188 184 159 136 103 22 18 354 355 3 18 41 334 69 82 71 64 185 235 308 330 323 323 316 313 324 315 327 322 335 313 287 251 254 207 210 194 171 180 200 200 153 61 188
194 209 220 190 204 170 176 162 76 18 8 28 68 49 7 326 108 60 72 83 235 221 300 308 300 297 307 324 327 338 340 316 320 312 314 270 270 220 117 185 232 190 186 184 218 210 206
196 196 207 196 174 173 188 200 161 9 39 104 61 69 339 69 35 56 105 251 280 276 285 263 261 293 288 309 307 301 275 283 272 325 348 296 249 279 153 189 201 208 195 191 197 213 217
198 199 192 188 194 202 194 163 171 128 114 59 89 77 314 41 62 109 235 204 278 287 259 253 257 262 264 301 284 281 269 278 302 331 344 319 320 263 242 98 51 221 212 193 198 187 217
201 194 196 198 201 202 191 184 192 164 138 118 97 151 325 134 113 171 277 275 236 286 310 305 286 340 322 290 300 268 286 297 331 327 348 330 332 286 208 203 56 35 23 280 245 21 219
205 200 201 200 195 211 198 185 197 163 155 94 102 83 340 293 181 142 315 278 294 270 260 288 267 326 330 308 307 291 304 310 329 310 315 271 308 318 30 25 334 166 296 353 230 213 220
212 201 200 200 196 178 190 186 189 161 167 95 52 209 189 195 183 216 251 249 290 321 304 283 250 360 334 294 309 280 316 323 317 337 346 267 320 325 345 338 145 245 343 9 24 246 208
218 190 193 208 196 185 195 194 192 171 151 84 135 151 160 244 274 214 225 239 267 337 278 299 283 329 315 285 280 299 312 308 297 317 338 334 285 331 262 304 311 188 300 11 9 112 72
202 197 202 193 196 193 196 197 201 173 136 136 142 35 106 229 187 155 226 216 225 343 268 255 314 316 303 302 303 284 271 265 260 283 307 296 341 335 293 332 306 56 273 78 317 342 335
197 194 194 194 196 196 201 193 203 180 154 121 173 117 112 249 207 217 235 261 297 297 273 291 294 272 281 320 299 275 251 252 253 253 232 278 318 288 296 314 73 203 29 186 110 287 263
199 191 193 195 198 188 188 199 203 192 168 116 147 130 164 215 224 248 259 272 290 288 285 267 281 251 316 309 307 318 324 323 323 88 207 215 267 286 319 319 296 77 54 76 153 270 70
190 189 191 198 193 193 192 203 207 197 184 115 155 139 134 134 231 241 270 259 276 286 294 261 302 305 341 293 304 287 308 325 329 334 86 153 249 279 333 317 314 89 322 293 207 243 129
194 185 196 199 194 198 196 201 204 200 186 141 173 169 127 209 246 176 215 216 196 249 263 313 335 326 358 350 292 282 267 342 323 317 342 336 349 251 265 282 292 315 316 306 287 16 115
198 193 195 193 193 191 194 198 198 197 188 147 178 189 175 189 260 197 216 210 214 202 241 340 333 81 325 5 327 323 330 333 297 302 293 293 313 249 203 234 256 359 330 29 323 292 153
197 191 188 188 190 192 192 192 192 197 182 146 147 198 160 184 261 278 258 246 224 207 239 229 251 341 277 303 330 313 298 271 310 299 325 275 244 295 244 251 345 347 313 319 269 211 4